Location: Gälforsberget
(66.6500°N, 22.4167°E)
Time: 07:22:37
(UTC+00:00)

SL-08 R/B - Pass Details

Date: 11 April 2026
Orbit: 667 x 728 km, 98.5° (Epoch: 12 May)

Event Time Altitude Azimuth Distance (km) Brightness Sun altitude
Rises 18:57:26 0° 20° (NNE) 3,127 6.9 -5.6°
Reaches altitude 10° 18:59:46 10° 26° (NNE) 2,212 6.1 -5.8°
Maximum altitude 19:04:30 50° 102° (ESE) 929 3.6 -6.1°
Drops below altitude 10° 19:09:15 10° 177° (S) 2,224 5.5 -6.5°
Sets 19:11:36 0° 183° (S) 3,146 6.3 -6.7°
